Notices

What's New in latest Release from April 7th, 2021:

- Updated Glossary, including Speed of Maximum Gust, and Total Hourly Precipitation

- Updated national and regional climate services offices contacts and prices information

- Addition of station inventory lists for 1981-2010, 1971-2000, and 1961-1990 Normals.

If you haven't already, please take our survey and provide feedback about our website: https://eccc.sondage-survey.ca/f/LanguageSelection.aspx?s=442ca660-fcf1-47c0-95a9-59707d6fd709

Hourly Data Report for October 04, 2019

PINAWA
MANITOBA
Current Station Operator: ECCC - MSC

50°10'38.020" N
96°03'53.000" W
268.00 m
503B1ER
71448
WEA

Download Data

Hourly Data (October 2019)
Hourly Data Report for October 4, 2019
TIME
LST
Temp Definition
°C
Dew Point Definition
°C
Rel Hum Definition
%
Precip. Amount Definition
mm

Wind Dir Definition
10's deg

Wind Spd Definition
km/h
Visibility Definition
km
Stn Press Definition
kPa
Hmdx Definition


Wind Chill Definition


Weather Definition


00:00 2.1 LegendMM LegendMM LegendMM 16 1   99.62     LegendNANA
01:00 3.9 LegendMM LegendMM LegendMM 17 2   99.62     LegendNANA
02:00 5.3 LegendMM LegendMM LegendMM 20 3   99.65     LegendNANA
03:00 5.4 LegendMM LegendMM LegendMM 21 3   99.68     LegendNANA
04:00 3.7 LegendMM LegendMM LegendMM 16 2   99.66     LegendNANA
05:00 0.8 LegendMM LegendMM LegendMM 15 2   99.66     LegendNANA
06:00 -0.4 LegendMM LegendMM LegendMM 15 3   99.66   -1 LegendNANA
07:00 3.8 LegendMM LegendMM LegendMM 15 3   99.66     LegendNANA
08:00 5.6 LegendMM LegendMM LegendMM 16 6   99.62     LegendNANA
09:00 6.2 LegendMM LegendMM LegendMM 16 13   99.60     LegendNANA
10:00 6.6 LegendMM LegendMM LegendMM 16 12   99.56     LegendNANA
11:00 7.2 LegendMM LegendMM LegendMM 16 12   99.50     LegendNANA
12:00 7.3 LegendMM LegendMM LegendMM 15 13   99.48     LegendNANA
13:00 7.8 LegendMM LegendMM LegendMM 16 10   99.43     LegendNANA
14:00 8.6 LegendMM LegendMM LegendMM 16 12   99.32     LegendNANA
15:00 9.3 LegendMM LegendMM LegendMM 15 14   99.20     LegendNANA
16:00 9.1 LegendMM LegendMM LegendMM 15 11   99.11     LegendNANA
17:00 7.9 LegendMM LegendMM LegendMM 15 12   99.04     LegendNANA
18:00 7.7 LegendMM LegendMM LegendMM 15 11   99.00     LegendNANA
19:00 7.7 LegendMM LegendMM LegendMM 15 11   98.95     LegendNANA
20:00 7.7 LegendMM LegendMM LegendMM 15 12   98.91     LegendNANA
21:00 7.5 LegendMM LegendMM LegendMM 16 14   98.82     LegendNANA
22:00 7.2 LegendMM LegendMM LegendMM 14 14   98.74     LegendNANA
23:00 7.0 LegendMM LegendMM LegendMM 14 11   98.66     LegendNANA

Notes on Data Quality.

Legend

  • E = Estimated
  • M = Missing
  • NA = Not Available*
  • [empty] = Indicates an unobserved value
Date modified: